COSMOS 397 DEB, 6843

Orbit data source: Space-Track

COSMOS 397 DEB, 6843 is space debris in LEO originally from a launch on Thu, 25 Feb 1971 UTC launched from the Tyuratam Missile And Space Complex (TTMTR). Debris objects in space refer to the collection of defunct objects orbiting the Earth. Examples of debris include non-operational satellites, rocket bodies, and fragments generated from explosions, collisions, or faulty payload assembly.

Loading next visibility...
Identifier
6843, 1971-015CK
Orbit
LEO
Last TLE update
11 hours ago
Origin
Manufacturer
Unknown
Mission
Spacecraft
Bus & Motor
Unknown
Mass
Unknown
Launch date (UTC)
1971-02-25 (54 years ago)
Launch vehicle
Unknown
Launch site
Tyuratam Missile And Space Complex (TTMTR)
Object type
Payload
Rocket body
Debris
Shape & HBR
Unknown
Radar Cross Section
Small (<0.1 m²)

Expand to show TLE details & history

TLE from 11 hours ago
0 COSMOS 397 DEB
1 06843U 71015CK  25150.60770635  .00007112  00000-0  11324-2 0  9996
2 06843  65.6622 147.0347 0339069 145.6612 216.6920 14.40791750673810
Epoch: 2025-05-30T14:35Z
TLE epoch observation values (Epoch: 2025-05-30T14:35:05.828Z)
Latitude
Longitude
39.90041°
Altitude
954.724 km
Speed
7.273 km/s
True Right ascension
09h 48m 08s
True Declination
0° 00' 00"
Sunlit
Object was in daylight at epoch
Visualization orbit readout
Latitude
-19.15452°
Longitude
-132.37216°
Altitude
619.664 km
Speed
7.624 km/s
Apparent Right ascension
22h 38m 05s
Apparent Declination
-29° 00' 36"
Sunlit
Object is in daylight
Visualization observer readout
Local Sidereal Time
11:03:49
Azimuth
27.825° NE
Elevation
-77.881°
Doppler factor
1
Orbital elements
Apogee altitude
996.213 km
Perigee altitude
512.53 km
Semi-major axis
7,132.509 km
Eccentricity
0.03391
Inclination
65.6622°
RAAN
147.0347°
Arg. of periapsis
145.6612°
True anomaly
Unknown
Mean anomaly
216.692°
Eccentric anomaly
Unknown
Mean motion
3.60313 °/min
Orbital period
99.91 mins
BSTAR
0.0011324
Loading maneuver chart data...
Loading SW <> Apogee altitude chart data...

COSMOS 397 DEB Visibility forecast

Observer location: undefined°, undefined°

Span
Click to sort rows by Start time (UTC) header in descending order
Start Az.
Max El. time (UTC)
Max El. Az.
Max El.
End time (UTC)
End Az.
9 mins2025-05-31 02:24:04.318Z241.976° WSW2025-05-31 02:29:04.318Z305.229° NW29.656°2025-05-31 02:33:04.318Z9.165° NNE
4 mins2025-05-31 09:28:04.318Z15.094° NNE2025-05-31 09:30:04.318Z54.875° ENE18.569°2025-05-31 09:32:04.318Z90.321° ESE
4 mins2025-05-31 11:11:04.318Z285.917° WNW2025-05-31 11:12:04.318Z260.425° W26.676°2025-05-31 11:15:04.318Z190.265° SSW
6 mins2025-06-01 00:02:04.318Z148.136° SSE2025-06-01 00:05:04.318Z111.664° ESE19.418°2025-06-01 00:08:04.318Z71.915° E
|